Find Starlink 30851

NORAD ID: 58215 Int'l Des: 2023-170 Owner: SPXS Country: US Constellation: starlink operational
LEOCIRCULAR

リアルタイム位置

3D地球を読み込み中...

Starlink 30851について

説明を読み込み中...

次回通過

Passes for default location (London). Set your location on the main map for personalized predictions.

高度履歴

Loading altitude history...

軌道要素

1 58215U 23170K 26121.40087993 .00000346 00000-0 22081-4 0 9996
2 58215 43.0010 256.3081 0000937 269.8589 90.2155 15.27575280138367
Epoch: May 1, 2026 • Age: 12 hours

現在のステータス

高度 485.4 km
速度 7.63 km/s
衛星直下点 36.47°N, 155.15°W
打ち上げ日 Nov 4, 2023
運用期間 2.4 years
タイプ internet

技術仕様

分類 Payload
質量 730.00 kg
乾燥質量 700.00 kg
総質量 730.00 kg
長さ 0.30 m
直径 4.10 m
スパン 29.00 m
形状 Box + pan
製造者 SPXS
バスタイプ Starlink V2M
フェーズステータス In Orbit
所有者/国 SPXS/US

Most Searched